Location: *
(46.1333°S, 161.2167°W)
Time: 09:11:31
(UTC+00:00)

Cosmos 2298 Rocket - Pass Details

Date: 26 October 2020
Orbit: 776 x 783 km, 74.0° (Epoch: 04 December)

Event Time Altitude Azimuth Distance (km) Brightness Sun altitude
Exits shadow 13:19:53 16° 256° (WSW) 1,985 5.8 -19.7°
Maximum altitude 13:21:48 19° 230° (SW) 1,835 5.9 -19.5°
Drops below altitude 10° 13:25:33 10° 186° (S) 2,377 7.0 -19.0°
Sets 13:28:42 0° 168° (SSE) 3,313 8.2 -18.6°
